Flag for Central African Republic Weather past 2 weeks in Bimbo, Central African Republic

Now
73 °F

Clear.


Feels Like: 70 °F
Forecast: 72 / 92 °F
Wind: No wind

Location: Bangui Airport

Current Time: Apr 1, 2015 at 6:29:28 AM

Latest Report: Apr 1, 2015 at 5:00 AM


Visibility: 10 mi

Pressure: 29.86 "Hg

Humidity: 94%

Dew point: 72 °F

Location of BimboLocation

Historic Weather in Bimbo — Graph

°F

Bimbo temperature yesterday

Maximum temperature yesterday: 90 °F (at 3:00 PM)
Minimum temperature yesterday: 70 °F (at 1:00 AM)
Average temperature yesterday: 78 °F

Past Weeks' High & Low Weather Summary

 TemperatureHumidityPressure
High100 °F (Mar 26, 1:00 PM)100% (Mar 18, 5:00 AM)30.01 "Hg (Mar 18, 5:00 AM)
Low68 °F (Mar 28, 6:00 AM)40% (Mar 26, 1:00 PM)29.68 "Hg (Mar 17, 3:00 PM)
Average81 °F78%29.82 "Hg
* Reported Mar 17 5:00 AM — Apr 1 5:00 AM, Bimbo, Weather by CustomWeather, © 2015

Note: Actual official high and low records may vary slightly from our data, if they occured in-between our weather recording intervals... More about our weather records

Advertising

Bimbo weather history for previous 24 hours

 ConditionsComfort  
Time TempWeatherWind HumidityBarometerVisibility
5:00 AM
Wed, Apr 1
73 °FClear.No wind94%29.86 "Hg10 mi
4:00 AM73 °FClear.2 mph100%29.86 "Hg10 mi
2:00 AM75 °FClear.2 mph94%29.86 "Hg10 mi
1:00 AM75 °FClear.No wind100%29.86 "Hg10 mi
12:00 AM75 °FClear.No wind100%29.89 "Hg10 mi
11:00 PM
Tue, Mar 31
75 °FClear.2 mph100%29.89 "Hg10 mi
9:00 PM79 °FClear.No wind89%29.86 "Hg10 mi
8:00 PM79 °FClear.2 mph89%29.86 "Hg10 mi
7:00 PM82 °FPassing clouds.2 mph74%29.83 "HgN/A
6:00 PM84 °FPassing clouds.2 mph70%29.80 "HgN/A
5:00 PM88 °FPartly sunny.5 mph59%29.80 "HgN/A
4:00 PM90 °FPartly sunny.1 mph55%29.80 "HgN/A
3:00 PM90 °FPartly sunny.3 mph55%29.80 "HgN/A
2:00 PM88 °FPartly sunny.No wind59%29.83 "HgN/A
1:00 PM86 °FBroken clouds.2 mph62%29.86 "HgN/A
12:00 PM82 °FBroken clouds.2 mph70%29.92 "HgN/A
11:00 AM82 °FBroken clouds.5 mph74%29.95 "HgN/A
10:00 AM79 °FPartly sunny.3 mph79%29.95 "HgN/A
9:00 AM77 °FMostly cloudy.7 mph83%29.98 "HgN/A
8:00 AM73 °FMostly cloudy.1 mph94%29.95 "Hg4 mi
6:00 AM70 °FMostly cloudy.1 mph100%29.92 "Hg4 mi
Weather by CustomWeather, © 2015

See weather overviewHow to use our weather pages